SAT-LLA

Last updated on Thu Dec 03 2020 00:02:13 GMT+0000 (Coordinated Universal Time)

1 46927U 98067RX 20337.10521012 .00013990 00000-0 24788-3 0 9999 2 46927 51.6427 237.3993 0003216 102.9896 257.1452 15.50545301 4142
UTC large
Height (km)
Speed (km/s)
/
Latitude / Longitude
Inclination (degrees)
Orbital Period (minutes)
Azimuth
Elevation
Range (km)
Doppler Factor

Next 0 passes for location: London (51.5072 / 0.1276)

Sorry there are no passes over London.